Home > Time Zones > World Clock > Weather > India > Surat > Past weeks

Flag for India Weather past 2 weeks in Surat, Gujarat, India

Now
79 °F

Fog.


Feels Like: 82 °F
Forecast: 79 / 87 °F
Wind: 6 mph from West

Location: Ahmadabad Airport

Current Time: Sep 20, 2014 at 8:31:15 AM

Latest Report: Sep 20, 2014 at 7:40 AM


Visibility: 2 mi

Pressure: 29.77 "Hg

Humidity: 89%

Dew point: 75 °F

Location of SuratLocation

Historic Weather in Surat — Graph

°F

Surat temperature yesterday

Maximum temperature yesterday: 93 °F (at 2:40 PM)
Minimum temperature yesterday: 79 °F (at 4:40 AM)
Average temperature yesterday: 86 °F

Past Weeks' High & Low Weather Summary

 TemperatureHumidityPressure
High93 °F (Sep 6, 3:10 PM)100% (Sep 8, 8:10 AM)29.83 "Hg (Sep 8, 8:10 AM)
Low75 °F (Sep 8, 9:10 PM)56% (Sep 6, 3:10 PM)29.56 "Hg (Sep 5, 3:10 PM)
Average83 °F87%29.71 "Hg
* Reported Sep 5 6:10 AM — Sep 20 6:10 AM, Surat, Weather by CustomWeather, © 2014

Note: Actual official high and low records may vary slightly from our data, if they occured in-between our weather recording intervals... More about our weather records

Advertising

Surat weather history for previous 24 hours

 ConditionsComfort  
Time TempWeatherWind HumidityBarometerVisibility
6:10 AM
Sep 20
77 °FFog.6 mph94%29.74 "Hg2 mi
5:40 AM77 °FFog.5 mph94%29.74 "Hg2 mi
5:10 AM77 °FFog.5 mph94%29.74 "Hg2 mi
4:40 AM79 °FPassing clouds.5 mph84%29.71 "Hg2 mi
3:40 AM79 °FPassing clouds.5 mph84%29.71 "Hg2 mi
2:40 AM81 °FPassing clouds.7 mph79%29.71 "Hg2 mi
2:10 AM81 °FPassing clouds.8 mph74%29.71 "Hg2 mi
1:10 AM82 °FPassing clouds.5 mph74%29.74 "Hg2 mi
12:40 AM82 °FPassing clouds.5 mph74%29.74 "Hg2 mi
11:10 PM
Sep 19
84 °FPassing clouds.5 mph74%29.77 "Hg2 mi
10:40 PM84 °FPassing clouds.3 mph74%29.77 "Hg2 mi
10:10 PM84 °FPassing clouds.3 mph74%29.77 "Hg2 mi
9:10 PM84 °FPassing clouds.3 mph74%29.74 "Hg2 mi
8:40 PM84 °FPassing clouds.3 mph74%29.74 "Hg2 mi
8:10 PM86 °FHaze.No wind70%29.74 "Hg2 mi
7:40 PM88 °FHaze.3 mph66%29.74 "Hg2 mi
6:40 PM90 °FPassing clouds.5 mph63%29.71 "Hg3 mi
5:40 PM91 °FScattered clouds.6 mph59%29.71 "Hg4 mi
5:10 PM91 °FScattered clouds.8 mph59%29.71 "Hg4 mi
4:40 PM93 °FScattered clouds.8 mph59%29.71 "Hg4 mi
4:10 PM93 °FScattered clouds.8 mph56%29.71 "Hg4 mi
3:40 PM93 °FScattered clouds.7 mph59%29.71 "Hg4 mi
3:10 PM93 °FScattered clouds.9 mph59%29.71 "Hg4 mi
2:40 PM93 °FScattered clouds.7 mph59%29.74 "Hg4 mi
1:40 PM91 °FPassing clouds.9 mph59%29.74 "Hg4 mi
1:10 PM91 °FPassing clouds.9 mph59%29.77 "Hg4 mi
12:40 PM90 °FClear.7 mph67%29.77 "Hg4 mi
12:10 PM90 °FClear.9 mph63%29.80 "Hg4 mi
11:40 AM90 °FClear.8 mph63%29.83 "Hg4 mi
9:10 AM84 °FHaze.6 mph79%29.83 "Hg2 mi
8:40 AM82 °FHaze.6 mph84%29.83 "Hg2 mi
8:10 AM81 °FFog.6 mph89%29.83 "Hg2 mi
Weather by CustomWeather, © 2014

See weather overviewHow to use our weather pages